Regional Weather Roundup
Issued by NWS

Home | Current Version | Previous Version | Text Only | Print | Product List | Glossary Off
Versions: 1 2 3 4 5 6 7 8 9 10 11 12 13 14 15 16 17 18 19 20 21 22 23 24 25 26 27 28 29 30 31 32 33 34 35 36 37 38 39 40 41 42 43 44 45 46 47 48 49 50

000
ASUS45 KPSR 212110
RWRAZ

ARIZONA REGIONAL HOURLY WEATHER ROUNDUP
NATIONAL WEATHER SERVICE PHOENIX AZ
200 PM MST TUE OCT 21 2014

NOTE: FAIR INDICATES FEW OR NO CLOUDS BELOW 12,000 FEET WITH NO
SIGNIFICANT WEATHER AND/OR OBSTRUCTIONS TO VISIBILITY.

AZZ001>003-036-212200-
NORTHWEST ARIZONA

CITY           SKY/WX    TMP DP  RH WIND       PRES   REMARKS
BULLHEAD CITY  SUNNY     90  46  22 S13G20    29.78F
KINGMAN        SUNNY     80  43  26 SW14G22   29.93F
$$

AZZ004>008-015-016-018-212200-
NORTH CENTRAL ARIZONA

CITY           SKY/WX    TMP DP  RH WIND       PRES   REMARKS
GRAND CANYON   MOSUNNY   67  34  29 SW14      30.09F
PRESCOTT       PTSUNNY   72  42  34 N6        30.02F
FLAGSTAFF      SUNNY     65  35  33 SW12      30.12F
PAYSON         SUNNY     70  48  46 S8        30.06F
PAGE           SUNNY     75  39  27 NE6       29.94F
$$

AZZ009>014-017-212200-
NORTHEAST ARIZONA

CITY           SKY/WX    TMP DP  RH WIND       PRES   REMARKS
WINSLOW        SUNNY     74  42  31 SE8       30.00F
SAINT JOHNS    SUNNY     68  39  34 CALM      30.05F
SHOW LOW       MOSUNNY   64  41  42 SW8       30.11F
$$

AZZ023-212200-
GREATER PHOENIX AREA

CITY           SKY/WX    TMP DP  RH WIND       PRES   REMARKS
PHOENIX        MOSUNNY   88  50  27 CALM      29.81F
BUCKEYE          N/A     86  52  30 E3        29.82F
GLENDALE       MOSUNNY   88  52  29 SE5       29.83F
LUKE AFB       MOSUNNY   86  53  31 VRB2      29.81F
DEER VALLEY    SUNNY     85  49  28 S8        29.83F
SCOTTSDALE     SUNNY     86  50  28 CALM      29.85F
MESA-FALCON    PTSUNNY   88  50  27 S8        29.82F
MESA-GATEWAY   MOSUNNY   86  50  28 E7        29.85F
CHANDLER       PTSUNNY   88  50  27 SE8       29.82F
$$

AZZ027-028-212200-
SOUTHWEST MARICOPA COUNTY AND PINAL COUNTY

CITY           SKY/WX    TMP DP  RH WIND       PRES   REMARKS
CASA GRANDE    SUNNY     84  48  28 CALM      29.84F
GILA BEND      CLEAR     90  48  24 N3        29.81F
$$

AZZ503-504-507>509-212200-
SOUTHEAST ARIZONA

CITY           SKY/WX    TMP DP  RH WIND       PRES   REMARKS
TUCSON         SUNNY     85  44  23 CALM      29.90F
DAVIS-MONTHAN  SUNNY     81  44  26 S2        29.88F
RYAN FIELD       N/A     84  46  26 E3        29.89F
NOGALES        SUNNY     80  42  25 MISG      29.95F
SIERRA VISTA   MOSUNNY   73  39  29 NW5       30.01F
DOUGLAS        PTSUNNY   78  43  28 E6        29.97F
SAFFORD        SUNNY     76  50  40 CALM      29.94F
$$

AZZ020-021-025-026-031-212200-
SOUTHWEST ARIZONA

CITY           SKY/WX    TMP DP  RH WIND       PRES   REMARKS
YUMA           MOSUNNY   92  52  25 W6        29.76F
$$

CAZ031-033-041-043-047-048-061-212200-
SOUTHERN CALIFORNIA

CITY           SKY/WX    TMP DP  RH WIND       PRES   REMARKS
DOWNTOWN L.A.  SUNNY     76  57  51 W7        29.85F
L.A. AIRPORT   MOSUNNY   72  61  68 W14       29.87F
SAN DIEGO      MOSUNNY   73  61  65 NW12      29.87F
BURBANK        MOSUNNY   77  56  48 S9        29.85F
ONTARIO        MOSUNNY   78  55  44 SW7       29.86F
RIVERSIDE      MOSUNNY   78  55  44 VRB5      29.86F
PALM SPRINGS   SUNNY     93  39  15 NE5       29.78F
EL CENTRO NAS  MOSUNNY   92  44  19 E5        29.74F
IMPERIAL       SUNNY     92  46  20 VRB3      29.74F
BLYTHE         SUNNY     90  49  24 S7        29.78F
NEEDLES        SUNNY     92  45  19 SW8       29.78F
$$

NVZ020-UTZ003-212200-
SOUTHERN NEVADA-UTAH

CITY           SKY/WX    TMP DP  RH WIND       PRES   REMARKS
LAS VEGAS      MOSUNNY   85  24  11 SW20G25   29.79F
SALT LAKE CITY PTSUNNY   62  37  39 NW14      30.01R
$$

NMZ009-TXZ055-212200-
NEW MEXICO-WEST TEXAS

CITY           SKY/WX    TMP DP  RH WIND       PRES   REMARKS
ALBUQUERQUE    MOSUNNY   65  44  46 W5        30.08F
EL PASO        MOSUNNY   71  52  50 CALM      30.00F
$$


........................KEY........................
SKY/WX - SKY CONDITION/WEATHER
TMP    - TEMPERATURE IN FAHRENHEIT
DP     - DEW POINT IN FAHRENHEIT
RH     - RELATIVE HUMIDITY IN PERCENT
WIND   - DIRECTION AND SPEED IN MILES PER HOUR (MPH)
VRB    - VARIABLE WIND DIRECTION
PRES   - MEAN SEA LEVEL PRESSURE IN INCHES OF MERCURY
         F - FALLING PRESSURE   R - RISING PRESSURE
         S - STEADY PRESSURE
VSB    - VISIBILITY IN MILES
HX     - HEAT INDEX IN FAHRENHEIT
WCI    - WIND CHILL INDEX IN FAHRENHEIT
TC     - TEMPERATURE IN CELSIUS WHICH IS ALSO KNOWN AS
         TEMPERATURE IN CENTIGRADE
AFB    - AIR FORCE BASE
         LUKE AFB IS LUKE AIR FORCE BASE
         DAVIS-MONTHAN IS DAVIS-MONTHAN AIR FORCE BASE
NAS    - NAVAL AIR STATION
         EL CENTRO NAS IS EL CENTRO NAVAL AIR STATION
N/A    - NOT AVAILABLE



USA.gov is the U.S. government's official web portal to all federal, state and local government web resources and services.